This is the latest recevied weather packets stored in our database for station/object WX0ABE-13. If no packets are shown the sender has not sent any weather packets the latest 10 day(s).
| Time | Temp. | Humidity | Pressure | Rain* | Wind** | Luminosity | Snow |
|---|---|---|---|---|---|---|---|
| 1787877506 | 30.56° C | 38% | 1017.8 hPa | 0 mm | - | 31 W/m² | - |
| 1787877202 | 30.56° C | 37% | 1017.7 hPa | 0 mm | - | 33 W/m² | - |
| 1787876902 | 30.56° C | 37% | 1017.7 hPa | 0 mm | - | 29 W/m² | - |
| 1787876598 | 30.56° C | 36% | 1017.8 hPa | 0 mm | - | 21 W/m² | - |
| 1787876297 | 31.11° C | 35% | 1017.7 hPa | 0 mm | - | 21 W/m² | - |
| 1787875995 | 31.67° C | 35% | 1017.7 hPa | 0 mm | - | 22 W/m² | - |
| 1787875691 | 31.67° C | 34% | 1017.8 hPa | 0 mm | - | 26 W/m² | - |
| 1787875389 | 32.22° C | 33% | 1017.8 hPa | 0 mm | - | 23 W/m² | - |
| 1787875089 | 32.78° C | 32% | 1017.6 hPa | 0 mm | - | 34 W/m² | - |
| 1787874784 | 32.78° C | 31% | 1017.8 hPa | 0 mm | - | 135 W/m² | - |
| 1787874481 | 32.78° C | 31% | 1017.8 hPa | 0 mm | - | 115 W/m² | - |
| 1787874176 | 32.78° C | 31% | 1017.7 hPa | 0 mm | - | 137 W/m² | - |
| 1787873872 | 32.78° C | 31% | 1018 hPa | 0 mm | - | 174 W/m² | - |
| 1787873571 | 32.78° C | 31% | 1017.7 hPa | 0 mm | - | 163 W/m² | - |
| 1787873267 | 32.78° C | 32% | 1017.7 hPa | 0 mm | - | 202 W/m² | - |
| 1787872965 | 33.33° C | 30% | 1017.8 hPa | 0 mm | - | 141 W/m² | - |
| 1787872661 | 33.33° C | 30% | 1017.7 hPa | 0 mm | - | 230 W/m² | - |
| 1787872357 | 33.33° C | 30% | 1017.7 hPa | 0 mm | - | 244 W/m² | - |
| 1787872051 | 33.33° C | 31% | 1017.8 hPa | 0 mm | - | 259 W/m² | - |
| 1787871746 | 33.33° C | 30% | 1018 hPa | 0 mm | - | 229 W/m² | - |
| 1787871442 | 33.33° C | 30% | 1018.3 hPa | 0 mm | - | 104 W/m² | - |
| 1787871142 | 33.33° C | 29% | 1018.2 hPa | 0 mm | - | 46 W/m² | - |
| 1787870842 | 33.89° C | 28% | 1018.3 hPa | 0 mm | - | 44 W/m² | - |
| 1787870536 | 33.33° C | 29% | 1018.2 hPa | 0 mm | - | 288 W/m² | - |
| 1787870232 | 33.89° C | 30% | 1018.4 hPa | 0 mm | - | 340 W/m² | - |
* Rain latest hour (hover to see other rain measurements)
** Current wind speed in m/s (hover to see current wind gust speed)